Weather History for Minchumina, AK

Change the Weather History Date:

Monday, August 5, 2013

  Actual Average Record
Temperature  
Mean Temperature 61 °F -  
Max Temperature 71 °F 62 °F 77 °F (2002)
Min Temperature 51 °F 48 °F 42 °F (2001)
Degree Days  
Heating Degree Days 4    
Growing Degree Days 11 (Base 50)    
Moisture  
Dew Point 47 °F    
Average Humidity 63    
Maximum Humidity 94    
Minimum Humidity 38    
Precipitation  
Precipitation 0.00 in - - ()
Sea Level Pressure  
Sea Level Pressure 29.86 in    
Wind  
Wind Speed 1 mph (SSE)    
Max Wind Speed 8 mph    
Max Gust Speed -    
Visibility 10 miles    
Events      
Averages and records for this station are not official NWS values.
T = Trace of Precipitation, MM = Missing Value Source: NWS Daily Summary

Daily Weather History Graph

Daily Weather History Graph

Search for Another Location

Airport:

Trip Planner

Search our weather history database for the weather conditions in past years. The results will help you decide how hot, cold, wet, or windy it might be!

Date:

Astronomy

Aug. 05, 2013 Rise Set
Actual Time 5:32 AM AKDT 10:55 PM AKDT
Civil Twilight 4:15 AM AKDT 12:10 AM AKDT
Nautical Twilight Sun does not rise Sun does not rise
Astronomical Twilight Sun does not rise Sun does not rise
Moon 4:47 AM AKDT (8/5) 9:38 PM AKDT (8/5)
Length of Visible Light 19h 55m
Length of Day
17h 22m
Waning Crescent, 1% of the Moon is Illuminated
Aug 5
Waning Crescent
Aug 6
New
Aug 14
First Quarter
Aug 20
Full
Aug 28
Last Quarter

Hourly Weather History & Observations

Time (AKDT) Temp. Dew Point Humidity Pressure Visibility Wind Dir Wind Speed Gust Speed Precip Events Conditions
12:16 AM 55.4 °F 48.2 °F 77% 29.89 in 10.0 mi Calm Calm - N/A   Mostly Cloudy
12:36 AM 55.4 °F 48.2 °F 77% 29.89 in 10.0 mi Calm Calm - N/A   Mostly Cloudy
12:56 AM 55.4 °F 48.2 °F 77% 29.89 in 10.0 mi Calm Calm - N/A   Mostly Cloudy
1:16 AM 55.4 °F 48.2 °F 77% 29.89 in 10.0 mi Calm Calm - N/A   Overcast
1:36 AM 55.4 °F 48.2 °F 77% 29.89 in 10.0 mi Calm Calm - N/A   Overcast
1:56 AM 53.6 °F 48.2 °F 82% 29.89 in 10.0 mi Calm Calm - N/A   Mostly Cloudy
2:16 AM 53.6 °F 48.2 °F 82% 29.89 in 10.0 mi Calm Calm - N/A   Mostly Cloudy
2:36 AM 53.6 °F 48.2 °F 82% 29.90 in 10.0 mi Calm Calm - N/A   Scattered Clouds
2:56 AM 53.6 °F 48.2 °F 82% 29.89 in 10.0 mi Calm Calm - N/A   Partly Cloudy
3:16 AM 53.6 °F 50.0 °F 88% 29.89 in 10.0 mi Calm Calm - N/A   Mostly Cloudy
3:36 AM 53.6 °F 50.0 °F 88% 29.89 in 10.0 mi Calm Calm - N/A   Mostly Cloudy
3:56 AM 53.6 °F 48.2 °F 82% 29.89 in 10.0 mi Calm Calm - N/A   Scattered Clouds
4:16 AM 53.6 °F 50.0 °F 88% 29.89 in 10.0 mi Calm Calm - N/A   Partly Cloudy
4:36 AM 53.6 °F 50.0 °F 88% 29.89 in 10.0 mi Calm Calm - N/A   Scattered Clouds
4:56 AM 53.6 °F 51.8 °F 94% 29.88 in 10.0 mi Calm Calm - N/A   Partly Cloudy
5:16 AM 51.8 °F 50.0 °F 94% 29.88 in 10.0 mi Calm Calm - N/A   Mostly Cloudy
5:36 AM 51.8 °F 50.0 °F 94% 29.88 in 10.0 mi Calm Calm - N/A   Partly Cloudy
5:56 AM 51.8 °F 50.0 °F 94% 29.88 in 10.0 mi Calm Calm - N/A   Clear
6:16 AM 51.8 °F 48.2 °F 88% 29.88 in 10.0 mi Calm Calm - N/A   Scattered Clouds
6:36 AM 51.8 °F 48.2 °F 88% 29.88 in 10.0 mi Calm Calm - N/A   Partly Cloudy
6:56 AM 51.8 °F 50.0 °F 94% 29.88 in 10.0 mi Calm Calm - N/A   Clear
7:16 AM 51.8 °F 50.0 °F 94% 29.88 in 10.0 mi Calm Calm - N/A   Scattered Clouds
7:36 AM 51.8 °F 50.0 °F 94% 29.88 in 10.0 mi Calm Calm - N/A   Mostly Cloudy
7:56 AM 51.8 °F 50.0 °F 94% 29.88 in 10.0 mi Calm Calm - N/A   Mostly Cloudy
8:16 AM 53.6 °F 51.8 °F 94% 29.88 in 10.0 mi Calm Calm - N/A   Partly Cloudy
8:36 AM 53.6 °F 51.8 °F 94% 29.87 in 10.0 mi South 3.5 mph - N/A   Clear
8:56 AM 53.6 °F 51.8 °F 94% 29.87 in 10.0 mi Calm Calm - N/A   Clear
9:16 AM 55.4 °F 51.8 °F 88% 29.87 in 10.0 mi Calm Calm - N/A   Clear
9:36 AM 59.0 °F 51.8 °F 77% 29.87 in 10.0 mi Calm Calm - N/A   Clear
9:56 AM 59.0 °F 51.8 °F 77% 29.87 in 10.0 mi East 3.5 mph - N/A   Clear
10:16 AM 60.8 °F 51.8 °F 72% 29.87 in 10.0 mi Calm Calm - N/A   Clear
10:36 AM 62.6 °F 51.8 °F 68% 29.87 in 10.0 mi East 3.5 mph - N/A   Clear
10:56 AM 64.4 °F 51.8 °F 64% 29.87 in 10.0 mi East 3.5 mph - N/A   Clear
11:16 AM 64.4 °F 50.0 °F 59% 29.87 in 10.0 mi Calm Calm - N/A   Partly Cloudy
11:36 AM 66.2 °F 48.2 °F 52% 29.86 in 10.0 mi East 4.6 mph - N/A   Partly Cloudy
11:56 AM 68.0 °F 50.0 °F 52% 29.86 in 10.0 mi East 5.8 mph - N/A   Partly Cloudy
12:16 PM 68.0 °F 50.0 °F 52% 29.86 in 10.0 mi East 4.6 mph - N/A   Clear
12:36 PM 68.0 °F 48.2 °F 49% 29.86 in 10.0 mi Calm Calm - N/A   Partly Cloudy
12:56 PM 68.0 °F 48.2 °F 49% 29.86 in 10.0 mi SE 4.6 mph - N/A   Clear
1:16 PM 68.0 °F 46.4 °F 46% 29.86 in 10.0 mi ESE 4.6 mph - N/A   Partly Cloudy
1:36 PM 68.0 °F 46.4 °F 46% 29.86 in 10.0 mi ESE 4.6 mph - N/A   Scattered Clouds
1:56 PM 68.0 °F 46.4 °F 46% 29.86 in 10.0 mi South 4.6 mph - N/A   Scattered Clouds
2:16 PM 68.0 °F 46.4 °F 46% 29.86 in 10.0 mi ESE 4.6 mph - N/A   Mostly Cloudy
2:36 PM 68.0 °F 46.4 °F 46% 29.86 in 10.0 mi SSE 4.6 mph - N/A   Mostly Cloudy
2:56 PM 68.0 °F 44.6 °F 43% 29.85 in 10.0 mi East 3.5 mph - N/A   Mostly Cloudy
3:16 PM 69.8 °F 46.4 °F 43% 29.84 in 10.0 mi Calm Calm - N/A   Overcast
3:36 PM 69.8 °F 46.4 °F 43% 29.84 in 10.0 mi SSW 5.8 mph - N/A   Mostly Cloudy
3:56 PM 69.8 °F 44.6 °F 40% 29.84 in 10.0 mi South 4.6 mph - N/A   Partly Cloudy
4:16 PM 69.8 °F 44.6 °F 40% 29.84 in 10.0 mi Calm Calm - N/A   Clear
4:36 PM 69.8 °F 44.6 °F 40% 29.84 in 10.0 mi SSW 3.5 mph - N/A   Clear
4:56 PM 69.8 °F 46.4 °F 43% 29.84 in 10.0 mi SW 4.6 mph - N/A   Clear
5:16 PM 69.8 °F 44.6 °F 40% 29.84 in 10.0 mi SSW 4.6 mph - N/A   Partly Cloudy
5:36 PM 69.8 °F 44.6 °F 40% 29.84 in 10.0 mi SSE 3.5 mph - N/A   Clear
5:56 PM 69.8 °F 44.6 °F 40% 29.84 in 10.0 mi South 3.5 mph - N/A   Clear
6:16 PM 71.6 °F 44.6 °F 38% 29.84 in 10.0 mi SSW 8.1 mph - N/A   Partly Cloudy
6:36 PM 71.6 °F 44.6 °F 38% 29.84 in 10.0 mi SSW 5.8 mph - N/A   Clear
6:56 PM 71.6 °F 44.6 °F 38% 29.83 in 10.0 mi WSW 3.5 mph - N/A   Clear
7:16 PM 71.6 °F 44.6 °F 38% 29.83 in 10.0 mi SW 3.5 mph - N/A   Clear
7:36 PM 69.8 °F 42.8 °F 38% 29.83 in 10.0 mi Calm Calm - N/A   Clear
7:56 PM 69.8 °F 42.8 °F 38% 29.83 in 10.0 mi Calm Calm - N/A   Mostly Cloudy
8:16 PM 69.8 °F 42.8 °F 38% 29.84 in 10.0 mi Calm Calm - N/A   Mostly Cloudy
8:36 PM 68.0 °F 42.8 °F 40% 29.84 in 10.0 mi Calm Calm - N/A   Clear
8:56 PM 66.2 °F 42.8 °F 43% 29.84 in 10.0 mi Calm Calm - N/A   Clear
9:16 PM 66.2 °F 44.6 °F 46% 29.85 in 10.0 mi Calm Calm - N/A   Clear
9:36 PM 64.4 °F 42.8 °F 45% 29.85 in 10.0 mi Calm Calm - N/A   Clear
9:56 PM 64.4 °F 42.8 °F 45% 29.85 in 10.0 mi Calm Calm - N/A   Clear
10:16 PM 62.6 °F 42.8 °F 48% 29.85 in 10.0 mi Calm Calm - N/A   Clear
10:36 PM 62.6 °F 41.0 °F 45% 29.85 in 10.0 mi NW 3.5 mph - N/A   Clear
10:56 PM 62.6 °F 41.0 °F 45% 29.85 in 10.0 mi West 3.5 mph - N/A   Clear
11:16 PM 62.6 °F 41.0 °F 45% 29.86 in 10.0 mi Calm Calm - N/A   Clear
11:36 PM 60.8 °F 41.0 °F 48% 29.86 in 10.0 mi Calm Calm - N/A   Partly Cloudy
11:56 PM 62.6 °F 41.0 °F 45% 29.86 in 10.0 mi Calm Calm - N/A   Partly Cloudy